Regional Weather Roundup
Issued by NWS

Home | Current Version | Previous Version | Graphics & Text | Print | Product List | Glossary On
Versions: 1 2 3 4 5 6 7 8 9 10 11 12 13 14 15 16 17 18 19 20 21 22 23 24 25 26 27 28 29 30 31 32 33 34 35 36 37 38 39 40 41 42 43 44 45 46 47 48 49 50
000
ASUS45 KTFX 100510
RWRMT
MONTANA REGIONAL WEATHER ROUNDUP
NATIONAL WEATHER SERVICE GREAT FALLS MT
1000 PM MST TUE FEB 09 2016

NOTE: "FAIR" INDICATES FEW OR NO CLOUDS BELOW 12000 FEET WITH NO
SIGNIFICANT WEATHER AND/OR OBSTRUCTIONS TO VISIBILITY.

MTZ001>007-043-100600-
WEST OF THE DIVIDE

CITY           SKY/WX    TMP DP  RH WIND       PRES   REMARKS
KALISPELL      PTCLDY    24  23  96 CALM      30.25S
MISSOULA       CLEAR     32  28  85 CALM      30.29R
BUTTE          CLOUDY    18  15  88 SE5       30.29S
MULLAN PASS    CLEAR     44  24  45 SW8       30.26S
ANACONDA         N/A     30  25  80 SW5       30.27F
DEER LODGE       N/A     28  23  80 W6        30.29F WCI  22
HAMILTON         N/A     34  30  86 S3        30.28S
LIBBY            N/A     27  25  93 SE3       30.27S
$$

MTZ008-052>055-100600-
SOUTHWEST MONTANA

CITY           SKY/WX    TMP DP  RH WIND       PRES   REMARKS
BOZEMAN        CLOUDY    28  21  75 S5        30.25F
DILLON         CLOUDY    34  23  64 SW18      30.29S WCI  23
THREE FORKS      N/A     26  26 100 CALM      30.21F
$$

MTZ009-010-012-014-046-048-049-054-100600-
EAST SLOPES AND CENTRAL MONTANA

CITY           SKY/WX    TMP DP  RH WIND       PRES   REMARKS
CUT BANK       MOCLDY    42  27  55 W14       30.04F
GREAT FALLS    CLOUDY    45  21  38 S14       30.09F
HELENA         CLOUDY    31  26  82 CALM      30.23F
CHOTEAU          N/A     45  18  33 SE7       30.08F
$$

MTZ011-013-016-021-045-047-050-051-100600-
NORTH CENTRAL MONTANA

CITY           SKY/WX    TMP DP  RH WIND       PRES   REMARKS
HAVRE          CLOUDY    45  25  45 SW15      29.99F
LEWISTOWN      CLOUDY    42  24  49 W3        30.08F
CHINOOK          N/A     34  25  69 CALM      29.98F
$$

MTZ017>020-022>027-061-062-100600-
NORTHEAST MONTANA

CITY           SKY/WX    TMP DP  RH WIND       PRES   REMARKS
GLASGOW        CLOUDY    36  29  75 W5        29.95F
JORDAN           N/A     30  28  92 W3        29.98F
SIDNEY         PTCLDY    28  21  74 SW3       29.95F
WOLF POINT     CLOUDY    33  29  85 W8        29.95F WCI  26
PLENTYWOOD       N/A     28  23  80 E5        29.92F
POPLAR           N/A     30  27  86 W6        29.95F WCI  24
$$

MTZ028>42-056>058-100600-
SOUTHCENTRAL AND SOUTHEAST MONTANA

CITY           SKY/WX    TMP DP  RH WIND       PRES   REMARKS
BAKER          CLOUDY    34  26  72 NW3       29.99F
BILLINGS       CLOUDY    47  22  37 SW26G32   30.08F
LIVINGSTON     CLOUDY    49  22  34 W22G41    30.19S
MILES CITY     CLOUDY    35  27  72 W8        30.00F WCI  29
FORSYTH          N/A     43  25  49 SW3       30.02F
LAUREL           N/A     44  21  40 S10       30.08F
ROUNDUP          N/A     42  18  38 S2        29.98S
$$

REGIONAL REPORTS...DAKOTAS

CITY           SKY/WX    TMP DP  RH WIND       PRES   REMARKS
WILLISTON      PTCLDY    26  22  84 CALM      29.96F
MINOT          LGT SNOW  20  13  74 E13       30.03F WCI   7
DICKINSON      CLOUDY    27  21  78 S12       29.94F WCI  17
BEACH            N/A     36  30  80 W12       29.98F WCI  27
CROSBY         CLOUDY    32  28  86 SE6       29.96F WCI  26
TIOGA          CLOUDY    28  27  93 S8        29.99F WCI  20
WATFORD CITY     N/A     25  23  93 SE6       29.95F WCI  18
BISMARCK       CLOUDY    32  21  64 E9        30.03F WCI  24
GRAND FORKS    MOCLDY     5  -2  72 N9        30.23F WCI  -9
FARGO          CLOUDY     4  -2  76 N7        30.21S WCI  -8
BUFFALO SD       N/A     36  27  69 W13       29.92F WCI  27
RAPID CITY     CLOUDY    30  25  81 CALM      30.03F
$$

REGIONAL REPORTS...WYOMING/IDAHO/WASHINGTON

CITY           SKY/WX    TMP DP  RH WIND       PRES   REMARKS
GILLETTE       CLEAR     40  27  59 SW13      30.10F
SHERIDAN       CLOUDY    34  22  61 E5        30.09F
BUFFALO WY     CLOUDY    41  21  44 MISG      30.13F
CODY           CLOUDY    36  21  55 CALM      30.19F
YELLOWSTONE LA   N/A     15  10  80 CALM      30.44F
IDAHO FALLS    FOG       16  14  92 CALM      30.45F VSB 1/4
SALMON         CLOUDY    10   9  92 SE3       30.45S
BOISE          CLEAR     32  28  85 CALM      30.45F
SPOKANE        PTCLDY    37  31  78 CALM      30.22F
$$

REGIONAL REPORTS...ALBERTA

CITY           SKY/WX    TMP DP  RH WIND       PRES   REMARKS
EDMONTON       PTCLDY    37  27  65 N8        29.95S WCI  31
CALGARY        PTCLDY    45  18  33 NW7       29.97R
LETHBRIDGE     CLEAR     52  28  40 W20G28    29.97F
MEDICINE HAT   CLEAR     36  30  80 S8        29.94F WCI  29
WATERTON GATE    N/A     52  25  35 SW23G35     N/A
CARDSTON         N/A     55  21  26 W15G22      N/A
MILK RIVER       N/A     39  27  60 W12         N/A  WCI  32
$$

REGIONAL REPORTS...SASKATCHEWAN

CITY           SKY/WX    TMP DP  RH WIND       PRES   REMARKS
SWIFT CURRENT  PTCLDY    36  30  80 SW13      29.86F WCI  27
REGINA         CLOUDY    28  27  93 E8        29.89F WCI  20
SASKATOON      MOCLDY    27  27 100 SE8       29.87F WCI  18
CYPRESS HILLS    N/A     48  16  27 NW9G17      N/A
VAL MARIE        N/A     28  27  93 S2          N/A
ROCKGLEN         N/A     39  32  75 W14         N/A  WCI  31
ASSINIBOIA       N/A     34  28  80 NW8         N/A  WCI  27
$$



USA.gov is the U.S. government's official web portal to all federal, state and local government web resources and services.